STARLINK-1653, 46352

Orbit data source: Space-Track

STARLINK-1653, 46352 is a payload satellite owned by SpaceX/Seattle (US) in LEO that was launched on Thu, 03 Sep 2020 UTC via an FALCON 9 launch vehicle from the Air Force Eastern Test Range (AFETR). Payload-class satellites include a variety of spacecraft equipped with specific instruments for various scientific and technological missions. These include communications satellites like Starlink; space stations such as the ISS; scientific satellites like the Hubble; Earth observation satellites from companies like Planet Labs, Umbra, and HawkEye 360; GPS; miniature CubeSats for education and research; and military/defense satellites.

Loading next visibility...
Identifier
46352, 2020-062AD
Orbit
LEO
Country
Flag of USUS
Related business
Manufacturer
SpaceX/Seattle
Mission
Partially operational Commercial Communications
Bus & Motor
STARLINK, Unknown motor
Mass
260 kg wet, ~248 kg dry
Launch date (UTC)
2020-09-03 (6 years ago)
Launch vehicle
FALCON 9
Launch site
Air Force Eastern Test Range (AFETR)
Object type
Payload
Rocket body
Debris
Shape & HBR
Box + 1 Pan, 10.1 m
Radar Cross Section
13.562 m², Large (>1 m²)

Expand to show TLE details & history
Last TLE update: 8 hours ago

TLE from 8 hours ago
0 STARLINK-1653
1 46352U 20062AD  26123.50855944  .00104192  00000-0  84243-3 0  9995
2 46352  53.0405  53.3386 0011680  86.8190 273.4162 15.69955345313661
Epoch: 2026-05-03T12:12Z
TLE epoch observation values (Epoch: 2026-05-03T12:12:19.535Z)
Latitude
-0.00008°
Longitude
8.84605°
Altitude
359.467 km
Speed
7.695 km/s
True Right ascension
03h 33m 21s
True Declination
0° 00' 00"
Sunlit
Object was in daylight at epoch
Visualization orbit readout
Latitude
Unknown
Longitude
Unknown
Altitude
Unknown
Speed
Unknown
Apparent Right ascension
Unknown
Apparent Declination
Unknown
Sunlit
N/A
Visualization observer readout
Local Sidereal Time
04:04:40
Azimuth
Unknown
Elevation
Unknown
Doppler factor
Unknown
Orbital elements
Apogee altitude
367.174 km
Perigee altitude
351.436 km
Semi-major axis
6,737.442 km
Eccentricity
0.00117
Inclination
53.0405°
RAAN
53.3386°
Arg. of periapsis
86.819°
True anomaly
273.28258°
Mean anomaly
273.4162°
Eccentric anomaly
273.34939°
Mean motion
3.92465 °/min
Orbital period
91.73 mins
BSTAR
0.00084243
Loading maneuver chart data...
Computing Atmospheric mass density...

Documentation

Showing up to 5 results
|